Findlay, OH

6:38 PM EST on February 09, 2016 (GMT -0500)
Findlay

Weather History for KFDY - April, 2012

Change the Weather History Date:

Tuesday, April 24, 2012

  Actual Average Record
Temperature  
Mean Temperature 50 °F -  
Max Temperature 63 °F 59 °F 85 °F (1960)
Min Temperature 36 °F 41 °F 27 °F (2015)
Degree Days  
Heating Degree Days 16    
Moisture  
Dew Point 22 °F    
Average Humidity 37    
Maximum Humidity 57    
Minimum Humidity 17    
Precipitation  
Precipitation 0.00 in - - ()
Sea Level Pressure  
Sea Level Pressure 29.63 in    
Wind  
Wind Speed 14 mph (WNW)    
Max Wind Speed 26 mph    
Max Gust Speed 36 mph    
Visibility 10 miles    
Events      
Averages and records for this station are not official NWS values.
T = Trace of Precipitation, MM = Missing Value Source: NWS Daily Summary

Daily Weather History Graph

Daily Weather History Graph

Search for Another Location

Airport or City:

Trip Planner

Search our weather history database for the weather conditions in past years. The results will help you decide how hot, cold, wet, or windy it might be!

Date:

Astronomy

Apr. 24, 2012 Rise Set
Actual Time 6:41 AM EDT 8:24 PM EDT
Civil Twilight 6:12 AM EDT 8:53 PM EDT
Nautical Twilight 5:36 AM EDT 9:29 PM EDT
Astronomical Twilight 4:58 AM EDT 10:07 PM EDT
Moon 8:35 AM EDT (4/24) 11:45 PM EDT (4/24)
Length of Visible Light 14h 41m
Length of Day
13h 43m
Waxing Crescent, 10% of the Moon is Illuminated
Apr 24
Waxing Crescent
Apr 29
First Quarter
May 5
Full
May 12
Last Quarter
May 20
New

Hourly Weather History & Observations

Time (EDT) Temp. Windchill Dew Point Humidity Pressure Visibility Wind Dir Wind Speed Gust Speed Precip Events Conditions
12:53 AM 42.1 °F 35.7 °F 21.0 °F 43% 29.62 in 10.0 mi West 11.5 mph - N/A   Clear
1:53 AM 39.0 °F 31.8 °F 21.9 °F 50% 29.61 in 10.0 mi West 11.5 mph - N/A   Clear
2:53 AM 37.0 °F 29.3 °F 21.9 °F 54% 29.59 in 10.0 mi West 11.5 mph - N/A   Clear
3:53 AM 37.0 °F 28.9 °F 21.9 °F 54% 29.59 in 10.0 mi West 12.7 mph - N/A   Clear
4:53 AM 37.0 °F 29.3 °F 21.0 °F 52% 29.59 in 10.0 mi West 11.5 mph - N/A   Clear
5:53 AM 36.0 °F 27.5 °F 21.9 °F 57% 29.59 in 10.0 mi West 12.7 mph - N/A   Clear
6:53 AM 36.0 °F 28.0 °F 21.9 °F 57% 29.60 in 10.0 mi West 11.5 mph - N/A   Clear
7:53 AM 39.0 °F 30.6 °F 24.1 °F 55% 29.61 in 10.0 mi West 15.0 mph 21.9 mph N/A   Clear
8:53 AM 44.1 °F 36.8 °F 26.1 °F 49% 29.61 in 10.0 mi WNW 16.1 mph 27.6 mph N/A   Clear
9:53 AM 48.9 °F - 26.1 °F 41% 29.62 in 10.0 mi WNW 16.1 mph 25.3 mph N/A   Clear
10:53 AM 53.1 °F - 21.0 °F 29% 29.63 in 10.0 mi NW 26.5 mph 34.5 mph N/A   Clear
11:53 AM 55.9 °F - 18.0 °F 23% 29.63 in 10.0 mi WNW 21.9 mph 32.2 mph N/A   Clear
12:53 PM 57.9 °F - 16.0 °F 19% 29.63 in 10.0 mi NW 18.4 mph 35.7 mph N/A   Clear
1:53 PM 60.1 °F - 15.1 °F 17% 29.63 in 10.0 mi NW 20.7 mph 35.7 mph N/A   Clear
2:53 PM 62.1 °F - 19.9 °F 20% 29.62 in 10.0 mi WNW 21.9 mph 29.9 mph N/A   Clear
3:53 PM 62.1 °F - 19.9 °F 20% 29.62 in 10.0 mi WNW 18.4 mph 28.8 mph N/A   Clear
4:53 PM 63.0 °F - 21.9 °F 21% 29.62 in 10.0 mi NW 23.0 mph 29.9 mph N/A   Scattered Clouds
5:53 PM 62.1 °F - 23.0 °F 22% 29.62 in 10.0 mi NW 19.6 mph 26.5 mph N/A   Partly Cloudy
6:53 PM 60.1 °F - 23.0 °F 24% 29.64 in 10.0 mi WNW 19.6 mph 32.2 mph N/A   Scattered Clouds
7:53 PM 57.0 °F - 21.9 °F 26% 29.65 in 10.0 mi West 15.0 mph - N/A   Clear
8:53 PM 53.1 °F - 23.0 °F 31% 29.67 in 10.0 mi WNW 11.5 mph - N/A   Clear
9:53 PM 50.0 °F - 24.1 °F 36% 29.69 in 10.0 mi WNW 10.4 mph - N/A   Clear
10:53 PM 43.0 °F 40.3 °F 26.1 °F 51% 29.71 in 10.0 mi West 4.6 mph - N/A   Clear
11:53 PM 45.0 °F 42.6 °F 25.0 °F 46% 29.72 in 10.0 mi West 4.6 mph - N/A   Mostly Cloudy